sat.trackr.live / text

‹ back to catalog

STARLINK-30107

NORAD 56287 · 2023-056B

PAYLOAD ACTIVE UNKNOWN

§ Identity

Operator
Country
US
Launch date
2023-04-19
Launch site
AFETR
Launch vehicle
Mass (kg)
RCS (m²)

Purposes: comms

External: N2YO · Heavens-Above · Gunter

§ Orbital elements

Epoch: 2026-05-25T05:24:18.493920Z

Period
94.27 min
Inclination
43.0016°
Eccentricity
0.0000760
Mean motion
15.27575815 rev/d
Perigee alt
482.5 km
Apogee alt
483.6 km
Semi-major
6,861.2 km
B*
7.4738e-5
RAAN
118.9206°
Arg perigee
254.8277°
Mean anomaly
105.2490°
Rev number
17,200

§ Raw data

STARLINK-301071 56287U 23056B   26145.22521405  .00001795  00000+0  74738-4 0  99972 56287  43.0016 118.9206 0000760 254.8277 105.2490 15.27575815172006

JSON: /api/v1/satellites/56287 · /tle

For live sub-satellite position, see the globe view (requires WebGL).

§ Visibility from observer

Set your observer location to see the next 7 days of passes ≥ 10°. The values pass through the URL so the page stays shareable.

No JS? Fill the form by hand. The geolocation button needs JavaScript.